This is the latest recevied weather packets stored in our database for station/object ZL1CTS-13. If no packets are shown the sender has not sent any weather packets the latest 10 day(s).
| Time | Temp. | Humidity | Pressure | Rain* | Wind** | Luminosity | Snow |
|---|---|---|---|---|---|---|---|
| 1788564304 | 16.67° C | 75% | 1008.8 hPa | 0 mm | - | - | - |
| 1788564005 | 16.67° C | 76% | 1008.7 hPa | 0 mm | - | - | - |
| 1788563705 | 16.67° C | 76% | 1008.9 hPa | 0 mm | - | - | - |
| 1788563704 | 16.67° C | 76% | 1008.9 hPa | 0 mm | - | - | - |
| 1788563404 | 16.67° C | 75% | 1008.8 hPa | 0 mm | - | - | - |
| 1788563104 | 16.67° C | 75% | 1008.8 hPa | 0 mm | - | - | - |
| 1788562806 | 16.67° C | 77% | 1008.7 hPa | 0 mm | - | - | - |
| 1788562804 | 16.67° C | 77% | 1008.7 hPa | 0 mm | - | - | - |
| 1788562504 | 16.67° C | 74% | 1009 hPa | 0 mm | - | - | - |
| 1788562204 | 16.67° C | 76% | 1008.9 hPa | 0 mm | - | - | - |
| 1788561905 | 16.67° C | 75% | 1008.9 hPa | 0 mm | - | - | - |
| 1788561903 | 16.67° C | 75% | 1008.9 hPa | 0 mm | - | - | - |
| 1788561603 | 16.67° C | 76% | 1008.9 hPa | 0 mm | - | - | - |
| 1788561303 | 16.67° C | 78% | 1008.8 hPa | 0 mm | - | - | - |
| 1788561005 | 16.67° C | 79% | 1008.7 hPa | 0 mm | - | - | - |
| 1788561003 | 16.67° C | 79% | 1008.7 hPa | 0 mm | - | - | - |
| 1788560704 | 16.11° C | 78% | 1008.7 hPa | 0 mm | - | - | - |
| 1788560404 | 16.11° C | 77% | 1008.6 hPa | 0 mm | - | - | - |
| 1788560105 | 16.11° C | 77% | 1008.7 hPa | 0 mm | - | - | - |
| 1788560104 | 16.11° C | 77% | 1008.7 hPa | 0 mm | - | - | - |
| 1788559804 | 16.11° C | 76% | 1008.7 hPa | 0 mm | - | - | - |
| 1788559503 | 16.67° C | 80% | 1008.8 hPa | 0 mm | - | - | - |
| 1788559205 | 16.11° C | 81% | 1008.6 hPa | 0 mm | - | - | - |
| 1788559203 | 16.11° C | 81% | 1008.6 hPa | 0 mm | - | - | - |
| 1788558904 | 15.56° C | 82% | 1008.6 hPa | 0 mm | - | - | - |
* Rain latest hour (hover to see other rain measurements)
** Current wind speed in m/s (hover to see current wind gust speed)